Location: Daytona Beach
(29.2106°N, 81.0231°W)
Time: 11:57:53
(UTC-04:00)

X-37B - Pass Details

Date: 26 June 2021
Orbit: 383 x 392 km, 45.0° (Epoch: 01 July)

Event Time Altitude Azimuth Distance (km) Brightness Sun altitude
Rises 21:19:32 0° 276° (W) 2,251 5.6 -10.6°
Reaches altitude 10° 21:22:27 10° 305° (NW) 1,398 5.0 -11.1°
Maximum altitude 21:24:02 13° 336° (NNW) 1,227 4.0 -11.4°
Drops below altitude 10° 21:25:38 10° 6° (N) 1,399 3.8 -11.7°
Sets 21:28:33 0° 36° (NE) 2,253 4.5 -12.2°
